EW2549 Weather Reports


Display with metric or nautical units.
time (UTC)temp
F
wind
direction
speed
MPH
gust
MPH
rain 1hr
in
rain 24hr
in
rain mn
in
humidity
%
barometer
mb
20260901163104 71 154 0.0 3.0 0.00 0.13 0.02 63 1008.4
20260901161551 67 103 0.0 0.0 0.00 0.13 0.02 71 1008.4
20260901160057 65 132 0.0 0.0 0.00 0.13 0.02 80 1008.3
20260901154542 62 225 0.0 0.0 0.00 0.13 0.02 89 1008.5
20260901153041 61 225 0.0 0.0 0.00 0.13 0.02 91 1008.6
20260901151538 60 225 0.0 0.0 0.00 0.13 0.02 92 1008.4
20260901150038 59 225 0.0 0.0 0.00 0.13 0.02 92 1008.2
20260901144539 59 225 0.0 0.0 0.00 0.13 0.02 92 1008.4
20260901143037 58 225 0.0 0.0 0.00 0.13 0.02 92 1008.5
20260901141537 58 225 0.0 0.0 0.00 0.13 0.02 92 1008.5
20260901140037 57 225 0.0 0.0 0.00 0.13 0.02 91 1008.5
20260901134555 57 225 0.0 0.0 0.00 0.13 0.02 91 1008.4
20260901133035 57 225 0.0 0.0 0.00 0.13 0.02 91 1008.2
20260901131535 56 226 0.0 0.0 0.00 0.13 0.02 90 1007.9
20260901130034 56 225 0.0 0.0 0.00 0.13 0.02 90 1007.4
20260901124534 56 225 0.0 0.0 0.00 0.13 0.02 90 1007.3
20260901123133 56 225 0.0 0.0 0.00 0.13 0.02 90 1007.1
20260901121531 57 225 0.0 0.0 0.00 0.13 0.02 90 1007.0
20260901120031 57 225 0.0 0.0 0.00 0.13 0.02 90 1007.2
20260901114534 57 225 0.0 0.0 0.00 0.13 0.02 90 1007.0
20260901113051 57 225 0.0 0.0 0.00 0.13 0.02 90 1007.1
20260901111529 58 225 0.0 0.0 0.00 0.13 0.02 89 1007.0
20260901110024 58 225 0.0 0.0 0.00 0.13 0.02 89 1007.1
20260901104522 58 225 0.0 0.0 0.00 0.13 0.02 89 1007.3
20260901103020 58 225 0.0 0.0 0.00 0.13 0.02 89 1007.3
20260901101517 59 225 0.0 0.0 0.00 0.13 0.02 89 1007.5
20260901100015 59 225 0.0 0.0 0.00 0.13 0.02 88 1007.8
20260901094514 59 225 0.0 0.0 0.00 0.13 0.02 89 1007.8
20260901093019 59 226 0.0 0.0 0.00 0.13 0.02 89 1008.0
20260901091510 59 226 0.0 0.0 0.00 0.13 0.02 88 1008.1
20260901090013 59 226 0.0 0.0 0.01 0.13 0.02 88 1008.1
20260901084524 60 226 0.0 0.0 0.01 0.13 0.02 88 1008.2
20260901083008 60 226 0.0 0.0 0.01 0.13 0.02 88 1008.2
20260901081504 60 226 0.0 0.0 0.01 0.13 0.02 89 1008.3
20260901080003 60 226 0.0 0.0 0.00 0.12 0.01 88 1008.6
20260901074606 60 225 0.0 0.0 0.00 0.12 0.01 88 1008.9
20260901073104 60 225 0.0 0.0 0.00 0.12 0.01 89 1008.9
20260901071559 61 225 0.0 0.0 0.00 0.12 0.01 89 1008.8
20260901070103 61 225 0.0 0.0 0.01 0.12 0.01 89 1009.0
20260901064556 61 225 0.0 0.0 0.01 0.12 0.01 88 1009.1
20260901063056 61 225 0.0 0.0 0.01 0.12 0.01 88 1008.8
20260901060051 60 225 0.0 0.0 0.00 0.11 0.00 86 1008.8
20260901054551 60 225 0.0 0.0 0.00 0.11 0.11 84 1008.4
20260901053106 61 225 0.0 0.0 0.00 0.11 0.11 85 1008.2
20260901051549 61 225 0.0 0.0 0.00 0.11 0.11 85 1008.4
20260901050049 61 168 0.0 0.0 0.00 0.11 0.11 85 1008.4
20260901044615 61 159 0.0 0.0 0.00 0.11 0.11 85 1008.5
20260901043048 61 159 0.0 0.0 0.00 0.11 0.11 85 1008.7
20260901041546 62 159 0.0 0.0 0.00 0.11 0.11 84 1008.7
20260901040046 62 159 0.0 0.0 0.00 0.11 0.11 84 1008.7
20260901034553 62 159 0.0 0.0 0.02 0.11 0.11 84 1009.0
20260901033046 62 159 0.0 0.0 0.05 0.11 0.11 84 1008.7
20260901031551 63 150 0.0 0.0 0.07 0.11 0.11 82 1008.7
20260901030043 64 165 0.0 0.0 0.09 0.11 0.11 80 1009.8
20260901024541 65 174 0.0 0.0 0.07 0.09 0.09 76 1010.4
20260901023042 66 200 0.0 0.0 0.04 0.06 0.06 74 1010.1
20260901021558 67 194 0.0 15.0 0.02 0.04 0.04 67 1009.4
20260901020058 69 178 6.0 13.0 0.00 0.02 0.02 57 1008.2
20260901014537 69 239 0.0 0.0 0.01 0.02 0.02 57 1007.2
20260901013042 69 310 0.0 0.0 0.02 0.02 0.02 56 1007.1
20260901011540 70 360 0.0 0.0 0.02 0.02 0.02 58 1007.0
20260901010040 72 310 0.0 5.0 0.02 0.02 0.02 55 1007.6
20260901004537 76 323 2.0 12.0 0.01 0.01 0.01 48 1007.5
20260901003040 81 78 0.0 0.0 0.00 0.00 0.00 33 1006.7
20260901001537 82 79 0.0 0.0 0.00 0.00 0.00 32 1006.7
20260901000034 83 79 0.0 0.0 0.00 0.00 0.00 30 1006.6
20260831234541 85 108 0.0 3.0 0.00 0.00 0.00 29 1006.7
20260831233043 85 92 0.0 0.0 0.00 0.00 0.00 28 1006.7
20260831231530 85 91 0.0 3.0 0.00 0.00 0.00 28 1006.7
20260831230128 84 72 0.0 7.0 0.00 0.00 0.00 29 1006.8
20260831224526 84 82 1.0 7.0 0.00 0.00 0.00 29 1007.0
20260831223023 83 71 0.0 0.0 0.00 0.00 0.00 31 1007.2
20260831221524 83 69 0.0 0.0 0.00 0.00 0.00 33 1007.5
20260831220024 83 69 0.0 3.0 0.00 0.00 0.00 30 1007.7
20260831214521 83 90 0.0 2.0 0.00 0.00 0.00 31 1007.6
20260831213030 83 144 0.0 0.0 0.00 0.00 0.00 31 1008.0
20260831211517 82 88 0.0 3.0 0.00 0.00 0.00 32 1008.1
20260831210020 82 108 0.0 0.0 0.00 0.00 0.00 32 1008.4
20260831204515 81 108 0.0 0.0 0.00 0.02 0.00 33 1008.5
20260831203011 81 118 0.0 0.0 0.00 0.02 0.00 33 1008.8
20260831201511 80 72 0.0 0.0 0.00 0.02 0.00 32 1009.1
20260831200020 81 65 0.0 0.0 0.00 0.02 0.00 32 1009.2
20260831194510 80 114 0.0 0.0 0.00 0.02 0.00 34 1009.4
20260831193009 80 169 0.0 0.0 0.00 0.02 0.00 33 1009.6
20260831191502 79 126 0.0 0.0 0.00 0.02 0.00 35 1009.8
20260831190119 79 125 0.0 0.0 0.00 0.02 0.00 36 1010.0
20260831184625 78 125 0.0 0.0 0.00 0.02 0.00 37 1010.1
20260831183106 78 124 0.0 0.0 0.00 0.02 0.00 35 1010.2
20260831181557 78 126 0.0 0.0 0.00 0.02 0.00 37 1010.2
20260831180055 78 142 0.0 0.0 0.00 0.02 0.00 38 1010.3
20260831174600 76 113 0.0 0.0 0.00 0.02 0.00 38 1010.4
20260831173100 76 113 0.0 0.0 0.00 0.02 0.00 39 1010.5
20260831171550 76 113 0.0 0.0 0.00 0.02 0.00 40 1010.5
20260831170056 76 121 0.0 0.0 0.00 0.02 0.00 40 1010.5